TimeCEST,TemperatureF,Dew PointF,Humidity,Sea Level PressureIn,VisibilityMPH,Wind Direction,Wind SpeedMPH,Gust SpeedMPH,PrecipitationIn,Events,Conditions,WindDirDegrees,DateUTC
12:55 AM,42.8,37.4,81,30.06,-9999.0,Calm,Calm,-,N/A,,Clear,0,2012-10-24 22:55:00
1:55 AM,41.0,37.4,87,30.06,-9999.0,NNE,3.5,-,N/A,,Clear,30,2012-10-24 23:55:00
2:55 AM,41.0,37.4,87,30.06,-9999.0,NNE,4.6,-,N/A,,Clear,20,2012-10-25 00:55:00
3:55 AM,41.0,37.4,87,30.04,-9999.0,North,3.5,-,N/A,,Clear,10,2012-10-25 01:55:00
4:55 AM,42.8,39.2,87,30.04,-9999.0,NNE,5.8,-,N/A,,Clear,20,2012-10-25 02:55:00
5:55 AM,41.0,37.4,87,30.01,-9999.0,North,4.6,-,N/A,,Clear,10,2012-10-25 03:55:00
6:55 AM,41.0,37.4,87,30.01,-9999.0,NNE,3.5,-,N/A,,Clear,30,2012-10-25 04:55:00
7:55 AM,41.0,37.4,87,30.01,-9999.0,NNE,3.5,-,N/A,,Clear,30,2012-10-25 05:55:00
8:55 AM,42.8,37.4,81,30.01,-9999.0,North,4.6,-,N/A,,Clear,10,2012-10-25 06:55:00
9:55 AM,44.6,39.2,81,30.01,-9999.0,North,4.6,-,N/A,,Clear,350,2012-10-25 07:55:00
10:55 AM,50.0,35.6,58,29.98,-9999.0,NNW,6.9,-,N/A,,Clear,340,2012-10-25 08:55:00
11:55 AM,55.4,33.8,44,29.98,-9999.0,North,4.6,-,N/A,,Clear,350,2012-10-25 09:55:00
12:55 PM,60.8,26.6,27,29.95,-9999.0,NW,9.2,-,N/A,,Clear,320,2012-10-25 10:55:00
1:55 PM,57.2,37.4,48,29.95,-9999.0,SSW,4.6,-,N/A,,Clear,200,2012-10-25 11:55:00
2:55 PM,57.2,37.4,48,29.92,-9999.0,SSW,5.8,-,N/A,,Clear,200,2012-10-25 12:55:00
3:55 PM,57.2,39.2,51,29.92,-9999.0,SW,4.6,-,N/A,,Clear,220,2012-10-25 13:55:00
4:55 PM,51.8,39.2,62,29.89,-9999.0,SSW,3.5,-,N/A,,Clear,210,2012-10-25 14:55:00
5:55 PM,50.0,39.2,66,29.89,-9999.0,Variable,1.2,-,N/A,,Clear,0,2012-10-25 15:55:00
6:55 PM,46.4,39.2,76,29.89,-9999.0,NE,3.5,-,N/A,,Clear,50,2012-10-25 16:55:00
7:55 PM,44.6,39.2,81,29.92,-9999.0,Calm,Calm,-,N/A,,Clear,0,2012-10-25 17:55:00
8:55 PM,44.6,37.4,76,29.92,-9999.0,North,3.5,-,N/A,,Clear,10,2012-10-25 18:55:00
9:55 PM,42.8,37.4,81,29.92,-9999.0,NE,3.5,-,N/A,,Clear,50,2012-10-25 19:55:00
10:55 PM,42.8,39.2,87,29.92,-9999.0,NNE,5.8,-,N/A,,Clear,30,2012-10-25 20:55:00
11:55 PM,42.8,39.2,87,29.92,-9999.0,NNE,4.6,-,N/A,,Clear,30,2012-10-25 21:55:00